Meteo pe oră la Dziecielin

Astăzi, 7 Martie, Duminică

Timp Temperatura Precipitaţii Vânt Presiune Umiditate
00:00 0°C° 0 mm 5 m/s 764 mmHg 89%
01:00 -1°C° 0 mm 5 m/s 763 mmHg 91%
02:00 -1°C° 0 mm 5 m/s 763 mmHg 88%
03:00 -2°C° 0 mm 6 m/s 762 mmHg 85%
04:00 -2°C° 0 mm 6 m/s 762 mmHg 82%
05:00 -2°C° 0 mm 6 m/s 761 mmHg 82%
06:00 -2°C° 0 mm 6 m/s 761 mmHg 82%
07:00 -2°C° 0 mm 6 m/s 760 mmHg 82%
08:00 -2°C° 0 mm 6 m/s 760 mmHg 80%
09:00 -2°C° 0 mm 6 m/s 760 mmHg 77%
10:00 -2°C° 0 mm 6 m/s 760 mmHg 75%
11:00 -1°C° 0 mm 6 m/s 759 mmHg 73%
12:00 -1°C° 0 mm 6 m/s 759 mmHg 71%
13:00 0°C° 0 mm 7 m/s 759 mmHg 74%
14:00 0°C° 0 mm 7 m/s 758 mmHg 74%
15:00 0°C° 0 mm 7 m/s 758 mmHg 73%
16:00 0°C° 0 mm 7 m/s 758 mmHg 73%
17:00 +1°C° 0 mm 6 m/s 757 mmHg 77%
18:00 -1°C° 0 mm 6 m/s 757 mmHg 80%
19:00 -1°C° 0 mm 5 m/s 757 mmHg 84%
20:00 -1°C° 0.3 mm 5 m/s 757 mmHg 87%
21:00 -1°C° 0.3 mm 4 m/s 757 mmHg 91%
22:00 -1°C° 0.3 mm 4 m/s 758 mmHg 95%
23:00 0°C° 0.1 mm 3 m/s 758 mmHg 92%

Mâine, 8 Martie, Luni

Timp Temperatura Precipitaţii Vânt Presiune Umiditate
00:00 -1°C° 0.1 mm 2 m/s 758 mmHg 89%
01:00 0°C° 0.1 mm 1 m/s 758 mmHg 85%
02:00 -3°C° 0 mm 2 m/s 758 mmHg 84%
03:00 -3°C° 0 mm 2 m/s 758 mmHg 82%
04:00 -3°C° 0 mm 2 m/s 758 mmHg 81%
05:00 -3°C° 0 mm 2 m/s 759 mmHg 78%
06:00 -3°C° 0 mm 2 m/s 759 mmHg 76%
07:00 -3°C° 0 mm 2 m/s 760 mmHg 73%
08:00 -2°C° 0 mm 2 m/s 760 mmHg 65%
09:00 0°C° 0 mm 3 m/s 761 mmHg 57%
10:00 +2°C° 0 mm 3 m/s 761 mmHg 49%
11:00 +2°C° 0 mm 3 m/s 761 mmHg 47%
12:00 +3°C° 0 mm 3 m/s 762 mmHg 45%
13:00 +3°C° 0 mm 3 m/s 762 mmHg 42%
14:00 +3°C° 0 mm 3 m/s 762 mmHg 43%
15:00 +3°C° 0 mm 3 m/s 762 mmHg 44%
16:00 +3°C° 0 mm 3 m/s 762 mmHg 45%
17:00 +2°C° 0 mm 2 m/s 762 mmHg 51%
18:00 +1°C° 0 mm 2 m/s 762 mmHg 57%
19:00 -2°C° 0 mm 2 m/s 762 mmHg 63%
20:00 0°C° 0 mm 1 m/s 762 mmHg 65%
21:00 0°C° 0 mm 1 m/s 762 mmHg 66%
22:00 0°C° 0 mm 1 m/s 762 mmHg 67%
23:00 -1°C° 0 mm 1 m/s 762 mmHg 69%

Poimâine, 9 Martie, Marţi

Timp Temperatura Precipitaţii Vânt Presiune Umiditate
00:00 -1°C° 0 mm 1 m/s 762 mmHg 70%
01:00 -1°C° 0 mm 1 m/s 762 mmHg 72%
02:00 -1°C° 0 mm 1 m/s 762 mmHg 72%
03:00 -1°C° 0 mm 1 m/s 761 mmHg 71%
04:00 -1°C° 0 mm 1 m/s 761 mmHg 71%
05:00 -1°C° 0 mm 1 m/s 761 mmHg 71%
06:00 -1°C° 0 mm 1 m/s 761 mmHg 70%
07:00 0°C° 0 mm 1 m/s 761 mmHg 70%
08:00 +1°C° 0 mm 1 m/s 761 mmHg 64%
09:00 +2°C° 0 mm 1 m/s 761 mmHg 57%
10:00 +3°C° 0 mm 1 m/s 761 mmHg 51%
11:00 +4°C° 0 mm 1 m/s 761 mmHg 45%
12:00 +5°C° 0 mm 1 m/s 760 mmHg 40%
13:00 +5°C° 0 mm 1 m/s 760 mmHg 35%
14:00 +5°C° 0 mm 1 m/s 760 mmHg 35%
15:00 +5°C° 0 mm 1 m/s 760 mmHg 34%
16:00 +5°C° 0 mm 1 m/s 759 mmHg 34%
17:00 +3°C° 0 mm 1 m/s 759 mmHg 39%
18:00 +1°C° 0 mm 0 m/s 759 mmHg 43%
19:00 -1°C° 0 mm 0 m/s 760 mmHg 48%
20:00 -1°C° 0 mm 0 m/s 760 mmHg 49%
21:00 -1°C° 0 mm 0 m/s 760 mmHg 50%
22:00 -1°C° 0 mm 0 m/s 760 mmHg 51%
23:00 -1°C° 0 mm 0 m/s 760 mmHg 51%

10 Martie, Miercuri

Timp Temperatura Precipitaţii Vânt Presiune Umiditate
00:00 -1°C° 0 mm 0 m/s 760 mmHg 52%
01:00 -1°C° 0 mm 0 m/s 760 mmHg 52%
02:00 -1°C° 0 mm 0 m/s 760 mmHg 52%
03:00 -1°C° 0 mm 0 m/s 760 mmHg 52%
04:00 -1°C° 0 mm 0 m/s 760 mmHg 52%
05:00 -1°C° 0 mm 0 m/s 760 mmHg 52%
06:00 -1°C° 0 mm 0 m/s 760 mmHg 51%
07:00 -1°C° 0 mm 0 m/s 760 mmHg 50%
08:00 +1°C° 0 mm 0 m/s 761 mmHg 46%
09:00 +2°C° 0 mm 0 m/s 761 mmHg 42%
10:00 +4°C° 0 mm 0 m/s 761 mmHg 37%
11:00 +6°C° 0 mm 1 m/s 761 mmHg 35%
12:00 +6°C° 0 mm 1 m/s 761 mmHg 33%
13:00 +7°C° 0 mm 1 m/s 761 mmHg 31%
14:00 +6°C° 0 mm 2 m/s 761 mmHg 34%
15:00 +6°C° 0 mm 2 m/s 760 mmHg 36%
16:00 +5°C° 0 mm 2 m/s 760 mmHg 38%
17:00 +4°C° 0 mm 2 m/s 760 mmHg 44%
18:00 +2°C° 0 mm 2 m/s 760 mmHg 51%
19:00 +1°C° 0 mm 2 m/s 760 mmHg 57%
20:00 -1°C° 0 mm 2 m/s 760 mmHg 62%
21:00 -1°C° 0 mm 3 m/s 760 mmHg 67%
22:00 -1°C° 0 mm 3 m/s 760 mmHg 71%
23:00 -1°C° 0 mm 3 m/s 759 mmHg 73%

11 Martie, Joi

Timp Temperatura Precipitaţii Vânt Presiune Umiditate
00:00 -1°C° 0 mm 4 m/s 758 mmHg 75%
01:00 -1°C° 0 mm 4 m/s 758 mmHg 77%
02:00 -1°C° 0 mm 4 m/s 757 mmHg 76%
03:00 -1°C° 0 mm 4 m/s 756 mmHg 75%
04:00 -1°C° 0 mm 5 m/s 755 mmHg 74%
05:00 0°C° 0.1 mm 5 m/s 754 mmHg 76%
06:00 0°C° 0.1 mm 5 m/s 753 mmHg 78%
07:00 +1°C° 0.1 mm 6 m/s 752 mmHg 80%
08:00 +1°C° 0.8 mm 6 m/s 751 mmHg 83%
09:00 +1°C° 0.8 mm 6 m/s 751 mmHg 87%
10:00 +2°C° 0.8 mm 6 m/s 750 mmHg 91%
11:00 +2°C° 1.7 mm 6 m/s 749 mmHg 92%
12:00 +3°C° 1.7 mm 6 m/s 749 mmHg 93%
13:00 +3°C° 1.7 mm 6 m/s 748 mmHg 94%
14:00 +5°C° 0.6 mm 5 m/s 748 mmHg 93%
15:00 +6°C° 0.6 mm 5 m/s 747 mmHg 92%
16:00 +7°C° 0.6 mm 5 m/s 746 mmHg 91%
17:00 +7°C° 0.7 mm 5 m/s 746 mmHg 89%
18:00 +7°C° 0.7 mm 5 m/s 746 mmHg 88%
19:00 +7°C° 0.7 mm 5 m/s 746 mmHg 86%
20:00 +6°C° 0 mm 5 m/s 747 mmHg 84%
21:00 +6°C° 0 mm 5 m/s 747 mmHg 83%
22:00 +5°C° 0 mm 5 m/s 748 mmHg 81%
23:00 +5°C° 0 mm 5 m/s 748 mmHg 82%

12 Martie, Vineri

Timp Temperatura Precipitaţii Vânt Presiune Umiditate
00:00 +3°C° 0 mm 5 m/s 748 mmHg 83%
01:00 +3°C° 0 mm 5 m/s 748 mmHg 84%
02:00 +3°C° 0 mm 5 m/s 748 mmHg 84%
03:00 +3°C° 0 mm 5 m/s 748 mmHg 84%
04:00 +3°C° 0 mm 6 m/s 748 mmHg 84%
05:00 +3°C° 0.1 mm 6 m/s 749 mmHg 82%
06:00 +3°C° 0.1 mm 6 m/s 749 mmHg 81%
07:00 +3°C° 0.1 mm 6 m/s 749 mmHg 79%
08:00 +3°C° 0 mm 7 m/s 750 mmHg 75%
09:00 +4°C° 0 mm 7 m/s 750 mmHg 71%
10:00 +4°C° 0 mm 8 m/s 751 mmHg 68%
11:00 +5°C° 0 mm 8 m/s 751 mmHg 64%
12:00 +6°C° 0 mm 8 m/s 751 mmHg 60%
13:00 +6°C° 0 mm 8 m/s 751 mmHg 56%
14:00 +6°C° 0 mm 7 m/s 751 mmHg 56%
15:00 +6°C° 0 mm 7 m/s 751 mmHg 56%
16:00 +7°C° 0 mm 6 m/s 751 mmHg 56%
17:00 +7°C° 0 mm 5 m/s 751 mmHg 61%
18:00 +6°C° 0 mm 5 m/s 751 mmHg 65%
19:00 +5°C° 0 mm 4 m/s 751 mmHg 70%
20:00 +5°C° 0.1 mm 4 m/s 751 mmHg 72%
21:00 +5°C° 0.1 mm 4 m/s 750 mmHg 75%
22:00 +5°C° 0.1 mm 4 m/s 750 mmHg 77%
23:00 +5°C° 0 mm 5 m/s 750 mmHg 76%
Arată mai mult

Formular de consimțământ

Meteoprog și furnizorii noștri de servicii pot stoca și accesa date personale, precum cookies, identificatori de dispozitiv sau alte tehnologii similare pe dispozitivul dumneavoastră și procesa astfel de date pentru a personaliza conținutul și reclamele, dar și pentru a oferi caracteristici de social media și pentru a analiza traficul.

  • Stocarea și/sau accesarea informațiilor pe dispozitivul dumneavoastră

    Cookies, identificatori de dispozitiv sau alte informații pot fi stocate sau accesate pe dispozitiv în scopurile indicate mai sus.

  • Reclame și conținut personalizat, evaluarea reclamelor și a conținutului, informații despre audiențe și dezvoltarea produselor

    Reclamele și conținutul pot fi personalizate pe baza unui profil. Pot fi adăugate date suplimentare pentru a personaliza mai bine reclamele și conținutul. Performanța reclamelor și conținutului poate fi măsurată. Pot fi obținute informații despre utilizatorii care au văzut reclamele și conținutul. Aceste date pot fi utilizate pentru a dezvolta sau îmbunătăți experiența utilizatorilor, sistemele și software-ul.

Dând clic pe ‘Sunt de acord’, permiteți utilizarea cookie-urilor menționate, a identificatorilor de dispozitiv, balizelor web sau altor tehnologii similare. Setările pot fi modificate din browser-ul dispozitivului dumneavoastră.

În anumite scopuri, interesele legitime pot prima asupra consimțământului. Puteți citi mai multe informații în acest sens în Politica privind Confidențialitatea Datelor și Cookie.